Private Wetterstation Sandau
Wetterdaten: Sonntag, 01.04.2012
Datum Zeit Temp. A. Feuchte A. Luftdruck Regen Wind Richtung Richtung Taupunkt Windchill
01.04.2012 00:02 2,1 C 72 % 1014,5 hPa 0,0 l/m 0,0 km/h (0 Bft) NW 315 -2,4 C 2,1 C
01.04.2012 00:07 2,1 C 72 % 1014,6 hPa 0,0 l/m 2,9 km/h (1 Bft) N 360 -2,4 C 2,1 C
01.04.2012 00:12 2,1 C 73 % 1014,6 hPa 0,0 l/m 4,0 km/h (1 Bft) NW 315 -2,2 C 2,1 C
01.04.2012 00:17 2,1 C 73 % 1014,6 hPa 0,0 l/m 2,5 km/h (1 Bft) NW 315 -2,2 C 2,1 C
01.04.2012 00:22 2,1 C 73 % 1014,6 hPa 0,0 l/m 1,4 km/h (1 Bft) NW 315 -2,2 C 2,1 C
01.04.2012 00:27 1,9 C 73 % 1014,7 hPa 0,0 l/m 0,0 km/h (0 Bft) N-NW 337 -2,4 C 1,9 C
01.04.2012 00:32 1,9 C 74 % 1014,7 hPa 0,0 l/m 0,0 km/h (0 Bft) NW 315 -2,2 C 1,9 C
01.04.2012 00:37 1,9 C 74 % 1014,8 hPa 0,0 l/m 2,9 km/h (1 Bft) N-NW 337 -2,2 C 1,9 C
01.04.2012 00:42 1,9 C 74 % 1014,9 hPa 0,0 l/m 3,6 km/h (1 Bft) N-NW 337 -2,2 C 1,9 C
01.04.2012 00:47 1,8 C 74 % 1015,0 hPa 0,0 l/m 1,4 km/h (1 Bft) NW 315 -2,3 C 1,8 C
01.04.2012 00:52 1,8 C 74 % 1014,9 hPa 0,0 l/m 0,0 km/h (0 Bft) NW 315 -2,3 C 1,8 C
01.04.2012 00:57 1,8 C 74 % 1015,0 hPa 0,0 l/m 2,5 km/h (1 Bft) NW 315 -2,3 C 1,8 C
01.04.2012 01:02 1,6 C 74 % 1015,1 hPa 0,0 l/m 2,9 km/h (1 Bft) NW 315 -2,5 C 1,6 C
01.04.2012 01:07 1,6 C 75 % 1015,1 hPa 0,0 l/m 2,9 km/h (1 Bft) NW 315 -2,3 C 1,6 C
01.04.2012 01:12 1,6 C 75 % 1015,2 hPa 0,0 l/m 0,0 km/h (0 Bft) N 360 -2,3 C 1,6 C
01.04.2012 01:17 1,6 C 75 % 1015,2 hPa 0,0 l/m 3,2 km/h (1 Bft) NW 315 -2,3 C 1,6 C
01.04.2012 01:22 1,6 C 75 % 1015,2 hPa 0,0 l/m 1,4 km/h (1 Bft) NW 315 -2,3 C 1,6 C
01.04.2012 01:27 1,6 C 75 % 1015,3 hPa 0,0 l/m 4,7 km/h (1 Bft) NW 315 -2,3 C 0,4 C
01.04.2012 01:32 1,8 C 75 % 1015,2 hPa 0,0 l/m 0,0 km/h (0 Bft) W-NW 292 -2,1 C 1,8 C
01.04.2012 01:37 1,8 C 75 % 1015,4 hPa 0,0 l/m 3,2 km/h (1 Bft) W-NW 292 -2,1 C 1,8 C
01.04.2012 01:42 1,9 C 75 % 1015,4 hPa 0,0 l/m 1,4 km/h (1 Bft) NW 315 -2,1 C 1,9 C
01.04.2012 01:47 1,9 C 75 % 1015,5 hPa 0,0 l/m 5,0 km/h (1 Bft) NW 315 -2,1 C 0,6 C
01.04.2012 01:52 1,9 C 76 % 1015,5 hPa 0,0 l/m 6,1 km/h (2 Bft) W-NW 292 -1,9 C 0,1 C
01.04.2012 01:57 1,9 C 76 % 1015,5 hPa 0,0 l/m 6,1 km/h (2 Bft) W 270 -1,9 C 0,1 C
01.04.2012 02:02 2,1 C 76 % 1015,5 hPa 0,0 l/m 5,0 km/h (1 Bft) W-NW 292 -1,7 C 0,8 C
01.04.2012 02:07 2,1 C 76 % 1015,6 hPa 0,0 l/m 9,7 km/h (2 Bft) W-NW 292 -1,7 C -0,7 C
01.04.2012 02:12 2,2 C 76 % 1015,6 hPa 0,0 l/m 8,6 km/h (2 Bft) W-NW 292 -1,6 C -0,3 C
01.04.2012 02:17 2,2 C 76 % 1015,6 hPa 0,0 l/m 6,8 km/h (2 Bft) W-NW 292 -1,6 C 0,2 C
01.04.2012 02:22 2,3 C 75 % 1015,6 hPa 0,0 l/m 12,6 km/h (3 Bft) W 270 -1,7 C -1,1 C
01.04.2012 02:27 2,3 C 75 % 1015,7 hPa 0,0 l/m 5,4 km/h (1 Bft) W 270 -1,7 C 0,9 C
01.04.2012 02:32 2,2 C 75 % 1015,6 hPa 0,0 l/m 6,8 km/h (2 Bft) W-NW 292 -1,8 C 0,2 C
01.04.2012 02:37 2,2 C 74 % 1015,5 hPa 0,0 l/m 4,3 km/h (1 Bft) W 270 -1,9 C 2,2 C
01.04.2012 02:42 2,1 C 74 % 1015,6 hPa 0,0 l/m 6,1 km/h (2 Bft) W-NW 292 -2,0 C 0,4 C
01.04.2012 02:47 2,1 C 74 % 1015,6 hPa 0,0 l/m 9,7 km/h (2 Bft) W-NW 292 -2,0 C -0,7 C
01.04.2012 02:52 1,9 C 74 % 1015,6 hPa 0,0 l/m 6,5 km/h (2 Bft) W 270 -2,2 C -0,0 C
01.04.2012 02:57 1,9 C 74 % 1015,7 hPa 0,0 l/m 5,4 km/h (1 Bft) W 270 -2,2 C 0,4 C
01.04.2012 03:02 1,9 C 74 % 1015,6 hPa 0,0 l/m 2,5 km/h (1 Bft) W 270 -2,2 C 1,9 C
01.04.2012 03:07 1,8 C 73 % 1015,7 hPa 0,0 l/m 7,6 km/h (2 Bft) W-NW 292 -2,5 C -0,5 C
01.04.2012 03:12 1,7 C 73 % 1015,7 hPa 0,0 l/m 10,1 km/h (2 Bft) W-NW 292 -2,6 C -1,3 C
01.04.2012 03:17 1,6 C 72 % 1015,7 hPa 0,0 l/m 6,1 km/h (2 Bft) W 270 -2,9 C -0,2 C
01.04.2012 03:22 1,5 C 72 % 1015,7 hPa 0,0 l/m 6,5 km/h (2 Bft) W-NW 292 -3,0 C -0,5 C
01.04.2012 03:27 1,4 C 72 % 1015,7 hPa 0,0 l/m 6,1 km/h (2 Bft) W 270 -3,1 C -0,5 C
01.04.2012 03:32 1,3 C 72 % 1015,7 hPa 0,0 l/m 4,7 km/h (1 Bft) NW 315 -3,2 C 0,0 C
01.04.2012 03:37 1,3 C 72 % 1015,8 hPa 0,0 l/m 4,3 km/h (1 Bft) W-NW 292 -3,2 C 1,3 C
01.04.2012 03:42 1,3 C 72 % 1015,7 hPa 0,0 l/m 3,6 km/h (1 Bft) NW 315 -3,2 C 1,3 C
01.04.2012 03:47 1,2 C 72 % 1015,8 hPa 0,0 l/m 5,4 km/h (1 Bft) W 270 -3,3 C -0,4 C
01.04.2012 03:52 1,1 C 72 % 1015,7 hPa 0,0 l/m 5,0 km/h (1 Bft) W-NW 292 -3,4 C -0,3 C
01.04.2012 03:57 1,0 C 72 % 1015,7 hPa 0,0 l/m 6,5 km/h (2 Bft) W-NW 292 -3,5 C -1,1 C
01.04.2012 04:02 0,9 C 72 % 1015,7 hPa 0,0 l/m 2,5 km/h (1 Bft) W-NW 292 -3,6 C 0,9 C
01.04.2012 04:07 0,9 C 72 % 1015,8 hPa 0,0 l/m 4,3 km/h (1 Bft) W 270 -3,6 C 0,9 C
01.04.2012 04:12 0,8 C 73 % 1015,8 hPa 0,0 l/m 5,4 km/h (1 Bft) W-NW 292 -3,5 C -0,9 C
01.04.2012 04:17 0,7 C 72 % 1015,9 hPa 0,0 l/m 6,8 km/h (2 Bft) W-NW 292 -3,8 C -1,5 C
01.04.2012 04:22 0,7 C 73 % 1015,8 hPa 0,0 l/m 5,8 km/h (2 Bft) W-NW 292 -3,6 C -1,1 C
01.04.2012 04:27 0,6 C 73 % 1015,9 hPa 0,0 l/m 6,1 km/h (2 Bft) W-NW 292 -3,7 C -1,4 C
01.04.2012 04:32 0,6 C 73 % 1015,9 hPa 0,0 l/m 4,0 km/h (1 Bft) W-NW 292 -3,7 C 0,6 C
01.04.2012 04:37 0,5 C 73 % 1015,9 hPa 0,0 l/m 5,0 km/h (1 Bft) W-NW 292 -3,8 C -1,0 C
01.04.2012 04:42 0,5 C 73 % 1015,9 hPa 0,0 l/m 4,0 km/h (1 Bft) W 270 -3,8 C 0,5 C
01.04.2012 04:47 0,4 C 74 % 1016,0 hPa 0,0 l/m 5,4 km/h (1 Bft) W-NW 292 -3,7 C -1,3 C
01.04.2012 04:52 0,4 C 74 % 1015,9 hPa 0,0 l/m 4,7 km/h (1 Bft) NW 315 -3,7 C -1,0 C
01.04.2012 04:57 0,4 C 74 % 1015,8 hPa 0,0 l/m 5,8 km/h (2 Bft) W-NW 292 -3,7 C -1,5 C
01.04.2012 05:02 0,3 C 74 % 1015,8 hPa 0,0 l/m 5,8 km/h (2 Bft) W-NW 292 -3,8 C -1,6 C
01.04.2012 05:07 0,3 C 74 % 1015,7 hPa 0,0 l/m 6,1 km/h (2 Bft) W-NW 292 -3,8 C -1,7 C
01.04.2012 05:12 0,1 C 74 % 1015,7 hPa 0,0 l/m 5,4 km/h (1 Bft) W-NW 292 -4,0 C -1,7 C
01.04.2012 05:17 0,1 C 75 % 1015,7 hPa 0,0 l/m 5,4 km/h (1 Bft) W-NW 292 -3,8 C -1,7 C
01.04.2012 05:22 0,1 C 75 % 1015,7 hPa 0,0 l/m 5,4 km/h (1 Bft) W-NW 292 -3,8 C -1,7 C
01.04.2012 05:27 0,1 C 75 % 1015,7 hPa 0,0 l/m 2,5 km/h (1 Bft) W-NW 292 -3,8 C 0,1 C
01.04.2012 05:32 0,1 C 76 % 1015,7 hPa 0,0 l/m 2,9 km/h (1 Bft) W-NW 292 -3,6 C 0,1 C
01.04.2012 05:37 0,1 C 76 % 1015,8 hPa 0,0 l/m 5,0 km/h (1 Bft) W-NW 292 -3,6 C -1,5 C
01.04.2012 05:42 0,0 C 76 % 1015,8 hPa 0,0 l/m 2,2 km/h (1 Bft) W 270 -3,7 C 0,0 C
01.04.2012 05:47 -0,1 C 76 % 1015,9 hPa 0,0 l/m 0,0 km/h (0 Bft) W 270 -3,8 C -0,1 C
01.04.2012 05:52 -0,1 C 76 % 1016,0 hPa 0,0 l/m 5,0 km/h (1 Bft) W-NW 292 -3,8 C -1,7 C
01.04.2012 05:57 -0,1 C 76 % 1015,9 hPa 0,0 l/m 3,2 km/h (1 Bft) W-NW 292 -3,8 C -0,1 C
01.04.2012 06:02 -0,1 C 77 % 1016,0 hPa 0,0 l/m 3,2 km/h (1 Bft) W-NW 292 -3,6 C -0,1 C
01.04.2012 06:07 -0,1 C 77 % 1016,0 hPa 0,0 l/m 0,0 km/h (0 Bft) W 270 -3,6 C -0,1 C
01.04.2012 06:12 0,0 C 77 % 1016,2 hPa 0,0 l/m 0,0 km/h (0 Bft) W 270 -3,5 C 0,0 C
01.04.2012 06:17 -0,1 C 77 % 1016,0 hPa 0,0 l/m 2,5 km/h (1 Bft) W 270 -3,6 C -0,1 C
01.04.2012 06:22 -0,1 C 77 % 1016,0 hPa 0,0 l/m 5,0 km/h (1 Bft) W 270 -3,6 C -1,7 C
01.04.2012 06:27 -0,1 C 77 % 1016,1 hPa 0,0 l/m 3,2 km/h (1 Bft) NW 315 -3,6 C -0,1 C
01.04.2012 06:32 -0,1 C 77 % 1016,2 hPa 0,0 l/m 2,5 km/h (1 Bft) W 270 -3,6 C -0,1 C
01.04.2012 06:37 -0,1 C 77 % 1016,1 hPa 0,0 l/m 3,2 km/h (1 Bft) W-NW 292 -3,6 C -0,1 C
01.04.2012 06:42 -0,1 C 77 % 1016,3 hPa 0,0 l/m 2,5 km/h (1 Bft) W 270 -3,6 C -0,1 C
01.04.2012 06:47 -0,1 C 78 % 1016,3 hPa 0,0 l/m 2,2 km/h (1 Bft) W-NW 292 -3,5 C -0,1 C
01.04.2012 06:52 -0,2 C 78 % 1016,2 hPa 0,0 l/m 1,4 km/h (1 Bft) W-NW 292 -3,6 C -0,2 C
01.04.2012 06:57 -0,2 C 78 % 1016,2 hPa 0,0 l/m 1,4 km/h (1 Bft) W 270 -3,6 C -0,2 C
01.04.2012 07:02 -0,2 C 78 % 1016,3 hPa 0,0 l/m 2,2 km/h (1 Bft) W-SW 247 -3,6 C -0,2 C
01.04.2012 07:07 -0,1 C 78 % 1016,3 hPa 0,0 l/m 3,2 km/h (1 Bft) W-NW 292 -3,5 C -0,1 C
01.04.2012 07:12 -0,2 C 79 % 1016,3 hPa 0,0 l/m 0,0 km/h (0 Bft) W 270 -3,4 C -0,2 C
01.04.2012 07:17 -0,1 C 79 % 1016,4 hPa 0,0 l/m 0,0 km/h (0 Bft) W 270 -3,3 C -0,1 C
01.04.2012 07:22 -0,1 C 79 % 1016,3 hPa 0,0 l/m 4,0 km/h (1 Bft) W-SW 247 -3,3 C -0,1 C
01.04.2012 07:27 0,1 C 79 % 1016,2 hPa 0,0 l/m 0,0 km/h (0 Bft) W-SW 247 -3,1 C 0,1 C
01.04.2012 07:32 0,1 C 79 % 1016,2 hPa 0,0 l/m 3,2 km/h (1 Bft) W 270 -3,1 C 0,1 C
01.04.2012 07:37 0,3 C 79 % 1016,2 hPa 0,0 l/m 5,8 km/h (2 Bft) W 270 -2,9 C -1,6 C
01.04.2012 07:42 0,4 C 79 % 1016,2 hPa 0,0 l/m 2,9 km/h (1 Bft) W 270 -2,8 C 0,4 C
01.04.2012 07:47 0,5 C 79 % 1016,1 hPa 0,0 l/m 2,9 km/h (1 Bft) W-NW 292 -2,7 C 0,5 C
01.04.2012 07:52 0,6 C 79 % 1016,3 hPa 0,0 l/m 3,2 km/h (1 Bft) W 270 -2,6 C 0,6 C
01.04.2012 07:57 0,7 C 79 % 1016,3 hPa 0,0 l/m 4,7 km/h (1 Bft) W 270 -2,5 C -0,7 C
01.04.2012 08:02 0,8 C 79 % 1016,3 hPa 0,0 l/m 3,2 km/h (1 Bft) W-NW 292 -2,4 C 0,8 C
01.04.2012 08:07 0,8 C 79 % 1016,4 hPa 0,0 l/m 3,2 km/h (1 Bft) W 270 -2,4 C 0,8 C
01.04.2012 08:12 0,9 C 79 % 1016,4 hPa 0,0 l/m 6,8 km/h (2 Bft) W-NW 292 -2,3 C -1,3 C
01.04.2012 08:17 0,9 C 80 % 1016,4 hPa 0,0 l/m 5,4 km/h (1 Bft) W-NW 292 -2,2 C -0,7 C
01.04.2012 08:22 1,1 C 80 % 1016,4 hPa 0,0 l/m 23,4 km/h (4 Bft) SW 225 -2,0 C -4,3 C
01.04.2012 08:27 1,3 C 80 % 1016,5 hPa 0,0 l/m 3,6 km/h (1 Bft) W-SW 247 -1,8 C 1,3 C
01.04.2012 08:32 1,3 C 80 % 1016,4 hPa 0,0 l/m 9,4 km/h (2 Bft) W-SW 247 -1,8 C -1,6 C
01.04.2012 08:37 1,3 C 80 % 1016,5 hPa 0,0 l/m 17,3 km/h (3 Bft) W-SW 247 -1,8 C -3,2 C
01.04.2012 08:42 1,4 C 80 % 1016,4 hPa 0,0 l/m 9,4 km/h (2 Bft) W-NW 292 -1,7 C -1,5 C
01.04.2012 08:47 1,6 C 80 % 1016,4 hPa 0,0 l/m 7,6 km/h (2 Bft) W-NW 292 -1,5 C -0,7 C
01.04.2012 08:52 1,8 C 80 % 1016,4 hPa 0,0 l/m 10,4 km/h (2 Bft) SW 225 -1,3 C -1,3 C
01.04.2012 08:57 1,9 C 80 % 1016,5 hPa 0,0 l/m 5,4 km/h (1 Bft) W 270 -1,2 C 0,4 C
01.04.2012 09:02 1,9 C 80 % 1016,4 hPa 0,0 l/m 4,7 km/h (1 Bft) W 270 -1,2 C 0,7 C
01.04.2012 09:07 2,2 C 79 % 1016,4 hPa 0,0 l/m 14,0 km/h (3 Bft) W-SW 247 -1,1 C -1,5 C
01.04.2012 09:12 2,4 C 79 % 1016,4 hPa 0,0 l/m 13,3 km/h (3 Bft) W-NW 292 -0,9 C -1,2 C
01.04.2012 09:17 2,6 C 79 % 1016,4 hPa 0,0 l/m 4,0 km/h (1 Bft) W 270 -0,7 C 2,6 C
01.04.2012 09:22 2,7 C 78 % 1016,5 hPa 0,0 l/m 7,9 km/h (2 Bft) W 270 -0,7 C 0,5 C
01.04.2012 09:27 2,8 C 78 % 1016,6 hPa 0,0 l/m 5,8 km/h (2 Bft) W 270 -0,6 C 1,3 C
01.04.2012 09:32 2,9 C 78 % 1016,4 hPa 0,0 l/m 12,2 km/h (2 Bft) W-NW 292 -0,5 C -0,3 C
01.04.2012 09:37 3,1 C 78 % 1016,3 hPa 0,0 l/m 7,6 km/h (2 Bft) W 270 -0,4 C 1,0 C
01.04.2012 09:42 3,3 C 78 % 1016,3 hPa 0,0 l/m 5,0 km/h (1 Bft) W 270 -0,2 C 2,2 C
01.04.2012 09:47 3,4 C 78 % 1016,1 hPa 0,0 l/m 6,1 km/h (2 Bft) W 270 -0,1 C 1,8 C
01.04.2012 09:52 3,7 C 78 % 1016,3 hPa 0,0 l/m 14,8 km/h (3 Bft) NW 315 0,2 C 0,2 C
01.04.2012 09:57 3,9 C 77 % 1016,2 hPa 0,0 l/m 15,5 km/h (3 Bft) W 270 0,2 C 0,3 C
01.04.2012 10:02 3,9 C 77 % 1016,1 hPa 0,0 l/m 10,1 km/h (2 Bft) W 270 0,2 C 1,3 C
01.04.2012 10:07 4,1 C 77 % 1016,1 hPa 0,0 l/m 17,3 km/h (3 Bft) W-SW 247 0,4 C 0,3 C
01.04.2012 10:12 4,4 C 76 % 1016,1 hPa 0,0 l/m 18,0 km/h (3 Bft) W-SW 247 0,5 C 0,6 C
01.04.2012 10:17 4,5 C 76 % 1016,1 hPa 0,0 l/m 7,9 km/h (2 Bft) SW 225 0,6 C 2,6 C
01.04.2012 10:22 4,8 C 76 % 1016,1 hPa 0,0 l/m 5,4 km/h (1 Bft) W 270 0,9 C 3,7 C
01.04.2012 10:27 4,9 C 76 % 1015,9 hPa 0,0 l/m 10,8 km/h (2 Bft) S-SW 202 1,0 C 2,4 C
01.04.2012 10:32 5,1 C 75 % 1015,8 hPa 0,0 l/m 11,9 km/h (2 Bft) W-NW 292 1,0 C 2,4 C
01.04.2012 10:37 5,3 C 75 % 1016,0 hPa 0,0 l/m 4,7 km/h (1 Bft) SW 225 1,2 C 4,5 C
01.04.2012 10:42 5,5 C 75 % 1015,9 hPa 0,0 l/m 6,1 km/h (2 Bft) W-NW 292 1,4 C 4,3 C
01.04.2012 10:47 5,8 C 74 % 1015,9 hPa 0,0 l/m 15,8 km/h (3 Bft) S-SW 202 1,5 C 2,6 C
01.04.2012 10:52 5,9 C 73 % 1015,6 hPa 0,0 l/m 15,5 km/h (3 Bft) W-NW 292 1,4 C 2,8 C
01.04.2012 10:57 6,1 C 73 % 1015,5 hPa 0,0 l/m 12,6 km/h (3 Bft) W-NW 292 1,6 C 3,5 C
01.04.2012 11:02 6,3 C 72 % 1015,5 hPa 0,0 l/m 18,0 km/h (3 Bft) W 270 1,6 C 2,9 C
01.04.2012 11:07 6,4 C 71 % 1015,5 hPa 0,0 l/m 14,8 km/h (3 Bft) NW 315 1,5 C 3,5 C
01.04.2012 11:12 6,6 C 71 % 1015,4 hPa 0,0 l/m 2,9 km/h (1 Bft) N-NW 337 1,7 C 6,6 C
01.04.2012 11:17 6,7 C 70 % 1015,3 hPa 0,0 l/m 14,4 km/h (3 Bft) W-SW 247 1,6 C 3,9 C
01.04.2012 11:22 6,8 C 70 % 1015,2 hPa 0,0 l/m 14,0 km/h (3 Bft) W-SW 247 1,7 C 4,1 C
01.04.2012 11:27 6,9 C 70 % 1015,2 hPa 0,0 l/m 8,6 km/h (2 Bft) W-SW 247 1,8 C 5,2 C
01.04.2012 11:32 7,2 C 69 % 1015,0 hPa 0,0 l/m 11,2 km/h (2 Bft) W-NW 292 1,9 C 5,1 C
01.04.2012 11:37 7,3 C 68 % 1015,1 hPa 0,0 l/m 14,0 km/h (3 Bft) W-NW 292 1,8 C 4,7 C
01.04.2012 11:42 7,3 C 67 % 1015,0 hPa 0,0 l/m 16,6 km/h (3 Bft) NW 315 1,6 C 4,4 C
01.04.2012 11:47 7,4 C 66 % 1015,0 hPa 0,0 l/m 9,0 km/h (2 Bft) W 270 1,5 C 5,7 C
01.04.2012 11:52 7,4 C 66 % 1014,9 hPa 0,0 l/m 6,5 km/h (2 Bft) NW 315 1,5 C 6,3 C
01.04.2012 11:57 7,5 C 66 % 1014,9 hPa 0,0 l/m 16,2 km/h (3 Bft) W 270 1,6 C 4,7 C
01.04.2012 12:02 7,6 C 65 % 1014,7 hPa 0,0 l/m 17,6 km/h (3 Bft) W-SW 247 1,5 C 4,6 C
01.04.2012 12:07 7,8 C 64 % 1014,6 hPa 0,0 l/m 16,6 km/h (3 Bft) W 270 1,4 C 5,0 C
01.04.2012 12:12 7,8 C 64 % 1014,6 hPa 0,0 l/m 8,6 km/h (2 Bft) W-NW 292 1,4 C 6,3 C
01.04.2012 12:17 7,9 C 63 % 1014,7 hPa 0,0 l/m 15,5 km/h (3 Bft) W 270 1,3 C 5,3 C
01.04.2012 12:22 8,0 C 62 % 1014,6 hPa 0,0 l/m 26,6 km/h (4 Bft) W-NW 292 1,2 C 4,2 C
01.04.2012 12:27 7,9 C 62 % 1014,5 hPa 0,0 l/m 25,2 km/h (4 Bft) SW 225 1,1 C 4,2 C
01.04.2012 12:32 7,8 C 62 % 1014,4 hPa 0,0 l/m 18,7 km/h (3 Bft) W-NW 292 1,0 C 4,7 C
01.04.2012 12:37 7,9 C 62 % 1014,3 hPa 0,0 l/m 15,1 km/h (3 Bft) S-SW 202 1,1 C 5,3 C
01.04.2012 12:42 8,2 C 62 % 1014,3 hPa 0,0 l/m 14,0 km/h (3 Bft) W-NW 292 1,4 C 5,8 C
01.04.2012 12:47 8,3 C 61 % 1014,2 hPa 0,0 l/m 9,4 km/h (2 Bft) NW 315 1,2 C 6,7 C
01.04.2012 12:52 8,1 C 61 % 1014,2 hPa 0,0 l/m 10,8 km/h (2 Bft) W-SW 247 1,0 C 6,2 C
01.04.2012 12:57 7,9 C 61 % 1014,0 hPa 0,0 l/m 16,9 km/h (3 Bft) W-NW 292 0,9 C 5,1 C
01.04.2012 13:02 7,8 C 61 % 1014,0 hPa 0,0 l/m 13,7 km/h (3 Bft) W-NW 292 0,8 C 5,4 C
01.04.2012 13:07 7,8 C 61 % 1013,9 hPa 0,0 l/m 17,6 km/h (3 Bft) W-NW 292 0,8 C 4,9 C
01.04.2012 13:12 7,8 C 61 % 1014,0 hPa 0,0 l/m 11,2 km/h (2 Bft) W 270 0,8 C 5,8 C
01.04.2012 13:17 8,2 C 61 % 1013,9 hPa 0,0 l/m 23,0 km/h (4 Bft) W-SW 247 1,1 C 4,8 C
01.04.2012 13:22 8,4 C 60 % 1013,8 hPa 0,0 l/m 21,6 km/h (4 Bft) W-NW 292 1,1 C 5,2 C
01.04.2012 13:27 8,6 C 57 % 1013,7 hPa 0,0 l/m 31,7 km/h (5 Bft) W 270 0,6 C 4,6 C
01.04.2012 13:32 8,8 C 57 % 1013,6 hPa 0,0 l/m 12,2 km/h (2 Bft) W-SW 247 0,8 C 6,8 C
01.04.2012 13:37 8,6 C 56 % 1013,5 hPa 0,0 l/m 11,9 km/h (2 Bft) W 270 0,3 C 6,6 C
01.04.2012 13:42 8,8 C 57 % 1013,4 hPa 0,0 l/m 9,4 km/h (2 Bft) W-NW 292 0,8 C 7,3 C
01.04.2012 13:47 9,1 C 55 % 1013,5 hPa 0,0 l/m 9,7 km/h (2 Bft) W-SW 247 0,5 C 7,6 C
01.04.2012 13:52 9,2 C 54 % 1013,2 hPa 0,0 l/m 9,0 km/h (2 Bft) W-SW 247 0,4 C 7,9 C
01.04.2012 13:57 9,4 C 54 % 1013,1 hPa 0,0 l/m 12,2 km/h (2 Bft) W-SW 247 0,6 C 7,6 C
01.04.2012 14:02 9,6 C 52 % 1012,9 hPa 0,0 l/m 20,5 km/h (4 Bft) W 270 0,2 C 6,8 C
01.04.2012 14:07 9,7 C 53 % 1013,0 hPa 0,0 l/m 9,7 km/h (2 Bft) W 270 0,6 C 8,3 C
01.04.2012 14:12 9,6 C 52 % 1013,1 hPa 0,0 l/m 16,2 km/h (3 Bft) W-SW 247 0,2 C 7,3 C
01.04.2012 14:17 9,5 C 51 % 1012,9 hPa 0,0 l/m 24,8 km/h (4 Bft) W 270 -0,1 C 6,3 C
01.04.2012 14:22 9,3 C 50 % 1013,0 hPa 0,0 l/m 18,4 km/h (3 Bft) W-NW 292 -0,6 C 6,7 C
01.04.2012 14:27 9,1 C 51 % 1012,8 hPa 0,0 l/m 23,0 km/h (4 Bft) W 270 -0,5 C 6,0 C
01.04.2012 14:32 8,9 C 51 % 1012,8 hPa 0,0 l/m 11,2 km/h (2 Bft) W 270 -0,7 C 7,1 C
01.04.2012 14:37 8,9 C 51 % 1012,8 hPa 0,0 l/m 21,2 km/h (4 Bft) W 270 -0,7 C 5,9 C
01.04.2012 14:42 8,8 C 51 % 1012,5 hPa 0,0 l/m 10,8 km/h (2 Bft) W 270 -0,8 C 7,1 C
01.04.2012 14:47 8,7 C 51 % 1012,6 hPa 0,0 l/m 14,4 km/h (3 Bft) W 270 -0,9 C 6,4 C
01.04.2012 14:52 8,6 C 51 % 1012,5 hPa 0,0 l/m 11,2 km/h (2 Bft) W-SW 247 -1,0 C 6,7 C
01.04.2012 14:57 8,5 C 51 % 1012,3 hPa 0,0 l/m 8,3 km/h (2 Bft) W-SW 247 -1,0 C 7,2 C
01.04.2012 15:02 8,5 C 51 % 1012,2 hPa 0,0 l/m 18,4 km/h (3 Bft) W-SW 247 -1,0 C 5,7 C
01.04.2012 15:07 8,5 C 52 % 1012,1 hPa 0,0 l/m 13,0 km/h (3 Bft) W-NW 292 -0,8 C 6,3 C
01.04.2012 15:12 8,6 C 51 % 1011,9 hPa 0,0 l/m 28,1 km/h (4 Bft) W-NW 292 -1,0 C 4,9 C
01.04.2012 15:17 8,9 C 50 % 1012,0 hPa 0,0 l/m 18,0 km/h (3 Bft) W-SW 247 -0,9 C 6,2 C
01.04.2012 15:22 9,1 C 50 % 1012,0 hPa 0,0 l/m 21,6 km/h (4 Bft) W-NW 292 -0,8 C 6,1 C
01.04.2012 15:27 9,1 C 49 % 1011,7 hPa 0,0 l/m 14,4 km/h (3 Bft) W 270 -1,0 C 6,9 C
01.04.2012 15:32 9,1 C 50 % 1011,8 hPa 0,0 l/m 25,6 km/h (4 Bft) W 270 -0,8 C 5,7 C
01.04.2012 15:37 8,9 C 50 % 1011,9 hPa 0,0 l/m 26,3 km/h (4 Bft) W 270 -0,9 C 5,4 C
01.04.2012 15:42 8,8 C 50 % 1011,8 hPa 0,0 l/m 10,8 km/h (2 Bft) W 270 -1,0 C 7,1 C
01.04.2012 15:47 8,6 C 51 % 1011,8 hPa 0,0 l/m 15,8 km/h (3 Bft) W-SW 247 -1,0 C 6,1 C
01.04.2012 15:52 8,5 C 52 % 1011,7 hPa 0,0 l/m 7,2 km/h (2 Bft) W-NW 292 -0,8 C 7,4 C
01.04.2012 15:57 8,4 C 52 % 1011,7 hPa 0,0 l/m 26,3 km/h (4 Bft) W-NW 292 -0,9 C 4,8 C
01.04.2012 16:02 8,3 C 53 % 1011,8 hPa 0,0 l/m 24,1 km/h (4 Bft) W 270 -0,7 C 4,8 C
01.04.2012 16:07 8,3 C 53 % 1011,6 hPa 0,0 l/m 14,8 km/h (3 Bft) W 270 -0,7 C 5,8 C
01.04.2012 16:12 8,3 C 54 % 1011,6 hPa 0,0 l/m 16,6 km/h (3 Bft) W 270 -0,5 C 5,6 C
01.04.2012 16:17 8,3 C 55 % 1011,5 hPa 0,0 l/m 17,3 km/h (3 Bft) W-SW 247 -0,2 C 5,5 C
01.04.2012 16:22 8,4 C 55 % 1011,4 hPa 0,0 l/m 8,6 km/h (2 Bft) W-NW 292 -0,1 C 7,0 C
01.04.2012 16:27 8,5 C 55 % 1011,6 hPa 0,0 l/m 25,9 km/h (4 Bft) SW 225 -0,0 C 4,9 C
01.04.2012 16:32 8,4 C 55 % 1011,3 hPa 0,0 l/m 9,7 km/h (2 Bft) S-SO 157 -0,1 C 6,8 C
01.04.2012 16:37 8,4 C 56 % 1011,3 hPa 0,0 l/m 15,8 km/h (3 Bft) W 270 0,1 C 5,8 C
01.04.2012 16:42 8,2 C 57 % 1011,3 hPa 0,0 l/m 20,5 km/h (4 Bft) NW 315 0,2 C 5,1 C
01.04.2012 16:47 8,1 C 57 % 1011,3 hPa 0,0 l/m 18,4 km/h (3 Bft) W-NW 292 0,1 C 5,2 C
01.04.2012 16:52 7,9 C 58 % 1011,0 hPa 0,0 l/m 6,8 km/h (2 Bft) W 270 0,2 C 6,8 C
01.04.2012 16:57 7,9 C 59 % 1011,0 hPa 0,0 l/m 20,9 km/h (4 Bft) W 270 0,4 C 4,6 C
01.04.2012 17:02 7,9 C 59 % 1010,9 hPa 0,0 l/m 24,5 km/h (4 Bft) W-NW 292 0,4 C 4,3 C
01.04.2012 17:07 8,0 C 58 % 1010,9 hPa 0,0 l/m 7,9 km/h (2 Bft) SW 225 0,3 C 6,7 C
01.04.2012 17:12 7,9 C 58 % 1010,8 hPa 0,0 l/m 23,0 km/h (4 Bft) W 270 0,2 C 4,4 C
01.04.2012 17:17 7,9 C 59 % 1010,8 hPa 0,0 l/m 31,0 km/h (5 Bft) W-NW 292 0,4 C 3,8 C
01.04.2012 17:22 7,9 C 59 % 1010,6 hPa 0,0 l/m 15,5 km/h (3 Bft) W-NW 292 0,4 C 5,3 C
01.04.2012 17:27 7,9 C 58 % 1010,7 hPa 0,0 l/m 7,6 km/h (2 Bft) O 90 0,2 C 6,6 C
01.04.2012 17:32 7,9 C 58 % 1010,7 hPa 0,0 l/m 31,7 km/h (5 Bft) W-NW 292 0,2 C 3,7 C
01.04.2012 17:37 7,9 C 58 % 1010,6 hPa 0,0 l/m 26,6 km/h (4 Bft) W 270 0,2 C 4,1 C
01.04.2012 17:42 7,8 C 59 % 1010,6 hPa 0,0 l/m 22,7 km/h (4 Bft) W-NW 292 0,3 C 4,3 C
01.04.2012 17:47 7,6 C 61 % 1010,6 hPa 0,0 l/m 9,7 km/h (2 Bft) S-SW 202 0,6 C 5,8 C
01.04.2012 17:52 7,5 C 62 % 1010,4 hPa 0,0 l/m 10,8 km/h (2 Bft) W-NW 292 0,7 C 5,5 C
01.04.2012 17:57 7,4 C 63 % 1010,3 hPa 0,0 l/m 17,6 km/h (3 Bft) NW 315 0,8 C 4,4 C
01.04.2012 18:02 7,5 C 64 % 1010,1 hPa 0,0 l/m 10,1 km/h (2 Bft) W-NW 292 1,1 C 5,6 C
01.04.2012 18:07 7,5 C 64 % 1010,3 hPa 0,0 l/m 17,3 km/h (3 Bft) S 180 1,1 C 4,5 C
01.04.2012 18:12 7,5 C 64 % 1010,3 hPa 0,0 l/m 22,0 km/h (4 Bft) S-SW 202 1,1 C 4,0 C
01.04.2012 18:17 7,3 C 65 % 1010,2 hPa 0,0 l/m 17,6 km/h (3 Bft) W 270 1,2 C 4,2 C
01.04.2012 18:22 7,2 C 66 % 1010,1 hPa 0,0 l/m 13,0 km/h (3 Bft) W-SW 247 1,3 C 4,8 C
01.04.2012 18:27 7,1 C 67 % 1010,2 hPa 0,0 l/m 14,8 km/h (3 Bft) W-NW 292 1,4 C 4,4 C
01.04.2012 18:32 7,0 C 67 % 1010,1 hPa 0,0 l/m 24,8 km/h (4 Bft) W-NW 292 1,3 C 3,1 C
01.04.2012 18:37 6,9 C 67 % 1009,9 hPa 0,0 l/m 15,5 km/h (3 Bft) W 270 1,2 C 4,0 C
01.04.2012 18:42 6,9 C 67 % 1010,1 hPa 0,0 l/m 8,6 km/h (2 Bft) NW 315 1,2 C 5,2 C
01.04.2012 18:47 6,9 C 67 % 1009,9 hPa 0,0 l/m 23,0 km/h (4 Bft) W 270 1,2 C 3,1 C
01.04.2012 18:52 6,9 C 68 % 1009,9 hPa 0,0 l/m 18,4 km/h (3 Bft) W-NW 292 1,4 C 3,6 C
01.04.2012 18:57 6,9 C 68 % 1009,7 hPa 0,0 l/m 15,1 km/h (3 Bft) W 270 1,4 C 4,1 C
01.04.2012 19:02 6,9 C 68 % 1009,5 hPa 0,0 l/m 10,8 km/h (2 Bft) S-SW 202 1,4 C 4,8 C
01.04.2012 19:07 6,9 C 68 % 1009,5 hPa 0,0 l/m 9,4 km/h (2 Bft) N 360 1,4 C 5,1 C
01.04.2012 19:12 6,9 C 68 % 1009,4 hPa 0,0 l/m 13,3 km/h (3 Bft) W 270 1,4 C 4,3 C
01.04.2012 19:17 6,9 C 68 % 1009,4 hPa 0,0 l/m 13,0 km/h (3 Bft) W-NW 292 1,4 C 4,4 C
01.04.2012 19:22 6,9 C 69 % 1009,3 hPa 0,0 l/m 24,8 km/h (4 Bft) W-NW 292 1,6 C 3,0 C
01.04.2012 19:27 6,9 C 69 % 1009,3 hPa 0,0 l/m 11,2 km/h (2 Bft) W 270 1,6 C 4,7 C
01.04.2012 19:32 6,9 C 69 % 1009,2 hPa 0,0 l/m 9,7 km/h (2 Bft) W 270 1,6 C 5,0 C
01.04.2012 19:37 6,8 C 69 % 1009,2 hPa 0,0 l/m 26,3 km/h (4 Bft) W 270 1,5 C 2,7 C
01.04.2012 19:42 6,9 C 70 % 1008,9 hPa 0,0 l/m 15,1 km/h (3 Bft) W 270 1,8 C 4,1 C
01.04.2012 19:47 6,9 C 70 % 1008,9 hPa 0,0 l/m 19,1 km/h (3 Bft) W-NW 292 1,8 C 3,6 C
01.04.2012 19:52 6,8 C 70 % 1008,9 hPa 0,0 l/m 22,0 km/h (4 Bft) W 270 1,7 C 3,1 C
01.04.2012 19:57 6,8 C 70 % 1008,8 hPa 0,0 l/m 19,8 km/h (3 Bft) W-NW 292 1,7 C 3,4 C
01.04.2012 20:02 6,8 C 70 % 1009,0 hPa 0,0 l/m 6,1 km/h (2 Bft) S 180 1,7 C 5,8 C
01.04.2012 20:07 6,8 C 70 % 1008,8 hPa 0,0 l/m 9,0 km/h (2 Bft) W-SW 247 1,7 C 5,0 C
01.04.2012 20:12 6,8 C 70 % 1008,8 hPa 0,0 l/m 6,1 km/h (2 Bft) W-SW 247 1,7 C 5,8 C
01.04.2012 20:17 6,8 C 70 % 1008,8 hPa 0,0 l/m 18,4 km/h (3 Bft) W-SW 247 1,7 C 3,5 C
01.04.2012 20:22 6,8 C 70 % 1008,7 hPa 0,0 l/m 10,1 km/h (2 Bft) NW 315 1,7 C 4,8 C
01.04.2012 20:27 6,8 C 71 % 1008,6 hPa 0,0 l/m 14,0 km/h (3 Bft) W-SW 247 1,9 C 4,1 C
01.04.2012 20:32 6,8 C 71 % 1008,5 hPa 0,0 l/m 9,0 km/h (2 Bft) W-SW 247 1,9 C 5,0 C
01.04.2012 20:37 6,8 C 71 % 1008,5 hPa 0,0 l/m 6,5 km/h (2 Bft) S-SO 157 1,9 C 5,6 C
01.04.2012 20:42 6,8 C 71 % 1008,5 hPa 0,0 l/m 27,0 km/h (4 Bft) W 270 1,9 C 2,6 C
01.04.2012 20:47 6,8 C 71 % 1008,3 hPa 0,0 l/m 16,9 km/h (3 Bft) W-SW 247 1,9 C 3,7 C
01.04.2012 20:52 6,8 C 71 % 1008,2 hPa 0,0 l/m 19,4 km/h (3 Bft) W-SW 247 1,9 C 3,4 C
01.04.2012 20:57 6,8 C 71 % 1008,2 hPa 0,0 l/m 12,6 km/h (3 Bft) W 270 1,9 C 4,3 C
01.04.2012 21:02 6,8 C 71 % 1008,1 hPa 0,0 l/m 12,6 km/h (3 Bft) W-NW 292 1,9 C 4,3 C
01.04.2012 21:07 6,8 C 71 % 1008,1 hPa 0,0 l/m 13,3 km/h (3 Bft) W 270 1,9 C 4,2 C
01.04.2012 21:12 6,8 C 70 % 1008,2 hPa 0,0 l/m 20,2 km/h (4 Bft) W 270 1,7 C 3,3 C
01.04.2012 21:17 6,8 C 71 % 1008,0 hPa 0,0 l/m 25,9 km/h (4 Bft) W-SW 247 1,9 C 2,7 C
01.04.2012 21:22 6,8 C 70 % 1008,0 hPa 0,0 l/m 16,2 km/h (3 Bft) W 270 1,7 C 3,8 C
01.04.2012 21:27 6,8 C 70 % 1008,0 hPa 0,0 l/m 28,1 km/h (4 Bft) W 270 1,7 C 2,6 C
01.04.2012 21:32 6,8 C 70 % 1007,8 hPa 0,0 l/m 19,1 km/h (3 Bft) W 270 1,7 C 3,4 C
01.04.2012 21:37 6,8 C 70 % 1007,8 hPa 0,0 l/m 22,7 km/h (4 Bft) NW 315 1,7 C 3,1 C
01.04.2012 21:42 6,9 C 70 % 1007,8 hPa 0,0 l/m 9,0 km/h (2 Bft) W 270 1,8 C 5,1 C
01.04.2012 21:47 6,9 C 70 % 1007,6 hPa 0,0 l/m 10,4 km/h (2 Bft) W 270 1,8 C 4,8 C
01.04.2012 21:52 6,9 C 70 % 1007,6 hPa 0,0 l/m 23,4 km/h (4 Bft) W-NW 292 1,8 C 3,1 C
01.04.2012 21:57 6,9 C 71 % 1007,6 hPa 0,0 l/m 14,4 km/h (3 Bft) W-NW 292 2,0 C 4,2 C
01.04.2012 22:02 6,9 C 71 % 1007,6 hPa 0,0 l/m 17,6 km/h (3 Bft) W-NW 292 2,0 C 3,7 C
01.04.2012 22:07 6,8 C 72 % 1007,5 hPa 0,0 l/m 26,6 km/h (4 Bft) SW 225 2,1 C 2,7 C
01.04.2012 22:12 6,7 C 72 % 1007,4 hPa 0,0 l/m 6,1 km/h (2 Bft) W-SW 247 2,0 C 5,6 C
01.04.2012 22:17 6,7 C 72 % 1007,5 hPa 0,0 l/m 20,2 km/h (4 Bft) W-NW 292 2,0 C 3,2 C
01.04.2012 22:22 6,6 C 73 % 1007,4 hPa 0,0 l/m 13,7 km/h (3 Bft) W 270 2,1 C 3,9 C
01.04.2012 22:27 6,5 C 74 % 1007,4 hPa 0,0 l/m 10,8 km/h (2 Bft) W-NW 292 2,2 C 4,3 C
01.04.2012 22:32 6,5 C 74 % 1007,3 hPa 0,0 l/m 19,4 km/h (3 Bft) W-SW 247 2,2 C 3,0 C
01.04.2012 22:37 6,4 C 74 % 1007,2 hPa 0,0 l/m 16,2 km/h (3 Bft) W-NW 292 2,1 C 3,3 C
01.04.2012 22:42 6,4 C 74 % 1007,3 hPa 0,0 l/m 19,1 km/h (3 Bft) SW 225 2,1 C 2,9 C
01.04.2012 22:47 6,4 C 74 % 1007,2 hPa 0,0 l/m 21,2 km/h (4 Bft) W-NW 292 2,1 C 2,7 C
01.04.2012 22:52 6,4 C 74 % 1007,1 hPa 0,0 l/m 16,9 km/h (3 Bft) W 270 2,1 C 3,2 C
01.04.2012 22:57 6,4 C 75 % 1007,0 hPa 0,0 l/m 11,2 km/h (2 Bft) W-NW 292 2,3 C 4,1 C
01.04.2012 23:02 6,4 C 75 % 1007,0 hPa 0,0 l/m 16,6 km/h (3 Bft) W 270 2,3 C 3,3 C
01.04.2012 23:07 6,4 C 75 % 1007,2 hPa 0,0 l/m 19,1 km/h (3 Bft) W 270 2,3 C 2,9 C
01.04.2012 23:12 6,4 C 75 % 1007,1 hPa 0,0 l/m 7,6 km/h (2 Bft) W 270 2,3 C 4,9 C
01.04.2012 23:17 6,4 C 75 % 1007,1 hPa 0,0 l/m 18,4 km/h (3 Bft) W-NW 292 2,3 C 3,0 C
01.04.2012 23:22 6,4 C 75 % 1006,9 hPa 0,0 l/m 7,6 km/h (2 Bft) NW 315 2,3 C 4,9 C
01.04.2012 23:27 6,4 C 76 % 1007,1 hPa 0,0 l/m 14,4 km/h (3 Bft) W 270 2,5 C 3,6 C
01.04.2012 23:32 6,3 C 76 % 1007,1 hPa 0,0 l/m 28,1 km/h (4 Bft) W-NW 292 2,4 C 1,9 C
01.04.2012 23:37 6,3 C 77 % 1006,9 hPa 0,0 l/m 14,4 km/h (3 Bft) W 270 2,6 C 3,4 C
01.04.2012 23:42 6,2 C 78 % 1007,1 hPa 0,0 l/m 25,2 km/h (4 Bft) W-NW 292 2,7 C 2,0 C
01.04.2012 23:47 6,2 C 78 % 1007,0 hPa 0,0 l/m 16,9 km/h (3 Bft) SW 225 2,7 C 3,0 C
01.04.2012 23:52 6,1 C 79 % 1006,9 hPa 0,0 l/m 18,0 km/h (3 Bft) W-SW 247 2,7 C 2,7 C
01.04.2012 23:57 6,1 C 79 % 1006,9 hPa 0,0 l/m 13,3 km/h (3 Bft) W 270 2,7 C 3,4 C
_ Min-Zeit 06:52 15:27 23:22 - 00:02 - - 05:12 08:22
Minimum _ -0,2 C 49 % 1006,9 hPa - 0,0 km/h (0 Bft) - - -4,0 C -4,3 C
_ Max-Zeit 14:07 08:17 09:27 00:02 13:27 - - 23:52 14:07
Maximum _ 9,7 C 80 % 1016,6 hPa 0,0 l/m 31,7 km/h
W (5 Bft)
- - 2,7 C 8,3 C
Durchschnitt _ 4,8 C 69 % 1013,1 hPa #0,0 l/m 11,4 km/h (2 Bft) W-NW - -0,5 C 2,8 C
(c) by David Heller